[[{"header":{"parameterUnit":"m.s-1","parameterCategory":1,"la1":30.2991,"la2":30.254,"lo1":-89.0895,"lo2":-89.0444,"dy":0.0017,"dx":0.0017,"nx":28,"ny":28,"refTime":"2025-03-05T03:00:00:Z","depth":0,"parameterNumber":2,"parameterNumberName":"U-component_of_WINDS"},"data":[0,0,0,0,0,0,0,0,0,0,0,0,0,0,0,0,0,0,0,0,0,0,0,0,0,0,0,0,0,0,0,0,0,0,0,0,0,0,0,0,0,0,0,0,0,0,0,0,0,0,0,0,0,0,0,0,0,0,2.0347,2.0348,0,2.0455,2.0457,2.0458,2.0469,2.0468,2.0467,2.0466,2.0581,2.0585,2.0589,0,0,0,0,0,0,0,0,0,0,0,0,0,2.0153,2.0156,2.0347,2.0348,2.0349,2.0455,2.0457,2.0458,2.0469,2.0468,2.0467,2.0465,2.058,2.0585,2.059,0,0,0,0,0,0,0,0,0,0,0,0,0,2.0247,2.0158,2.0346,2.0368,2.0371,2.0455,2.0457,2.0459,2.047,2.0468,2.0466,2.0465,2.0578,2.0584,2.059,2.0662,0,0,2.0609,2.0612,0,0,0,0,0,0,0,0,2.0242,2.0254,2.0363,2.0366,2.037,2.0447,2.0431,2.0527,2.047,2.0432,2.0466,2.0464,2.0538,2.0547,2.0572,2.0668,2.0673,2.061,2.0613,2.0616,2.0618,0,0,0,0,0,0,0,2.0235,2.025,2.039,2.0365,2.0369,2.0373,2.0385,2.0449,2.0493,2.0435,2.0436,2.0449,2.054,2.0566,2.0575,2.0674,2.061,2.0615,2.0619,2.0621,2.0837,2.0839,0,0,0,0,0,0,2.0224,2.0244,2.0386,2.0393,2.03,2.0378,2.0391,2.0424,2.0493,2.0501,2.045,2.0449,2.0556,2.0567,2.0579,2.0669,2.0616,2.0622,2.0625,2.0835,2.0837,2.0839,0,0,0,0,0,0,2.022,2.0237,2.0382,2.0319,2.0338,2.0383,2.042,2.0427,2.0453,2.0504,2.0512,2.0468,2.0555,2.057,2.0642,2.0673,2.0625,2.063,2.0832,2.0835,2.0838,2.0848,0,0,0,0,0,0,2.0214,2.0235,2.0262,2.0319,2.0341,2.0442,2.0422,2.043,2.0463,2.0463,2.0523,2.0532,2.0555,2.0632,2.0648,2.068,2.0635,2.083,2.0834,2.0837,2.0845,2.0851,2.0856,0,0,0,0,0,2.0207,2.0261,2.0263,2.028,2.0375,2.0443,2.0456,2.048,2.0466,2.0494,2.0527,2.053,2.0667,2.0639,2.0657,2.0692,2.0828,2.0833,2.0837,2.0843,2.085,2.0856,0,0,0,0,0,0,2.0207,2.0269,2.0272,2.0345,2.0389,2.0445,2.0481,2.0487,2.0537,2.0534,2.0564,2.0577,2.0648,2.0677,2.0646,2.0766,2.0746,2.0754,2.0745,2.0752,2.0757,2.0749,2.064,0,0,0,0,0,2.0215,2.0264,2.0316,2.0376,2.0397,2.0435,2.0466,2.0481,2.0528,2.0547,2.0585,2.0632,2.0685,2.072,2.0772,2.0849,2.0864,2.0882,2.0888,2.0892,2.0899,2.0944,2.0953,2.0854,2.0854,2.0854,0,0,2.0233,2.0273,2.0302,2.0377,2.0412,2.0464,2.0451,2.0506,2.0545,2.0556,2.0626,2.0655,2.0709,2.0784,2.0819,2.0811,2.0929,2.0898,2.0901,2.0906,2.0949,2.0959,2.0967,2.0857,2.0857,2.0856,0,0,2.0292,2.0326,2.0381,2.0416,2.047,2.0495,2.0508,2.0564,2.0584,2.0654,2.0664,2.0711,2.0802,2.0841,2.0872,2.0947,2.0953,2.0963,2.0992,2.1035,2.1043,2.105,2.1078,2.1088,2.097,2.097,2.097,0,2.0308,2.0385,2.0408,2.0463,2.0496,2.0507,2.0563,2.0597,2.0666,2.0689,2.0678,2.0794,2.0831,2.0916,2.0934,2.0959,2.0976,2.0957,2.104,2.1047,2.1054,2.1081,2.1091,2.0971,2.0971,2.0971,2.0971,0,2.0402,2.0455,2.0493,2.0558,2.0595,2.065,2.0684,2.0719,2.0731,2.0758,2.083,2.0875,2.0937,2.0958,2.0971,2.1046,2.1039,2.1033,2.1014,2.1064,2.109,2.1101,2.0973,2.0972,2.0972,2.0972,0,0,2.0464,2.0541,2.0555,2.0585,2.0645,2.0688,2.0744,2.0803,2.0834,2.0881,2.093,2.1008,2.1003,2.1039,2.1056,2.1094,2.1152,2.1084,2.1086,2.1096,2.1239,2.1243,2.1254,2.1155,2.1157,2.1159,2.1234,0,2.0531,2.063,2.0654,2.0739,2.079,2.0802,2.0851,2.0894,2.0921,2.0969,2.0999,2.1054,2.1043,2.1065,2.1103,2.1137,2.1181,2.1131,2.1203,2.1205,2.119,2.1268,2.1272,2.1341,2.1245,2.1246,2.1247,0,2.0622,2.067,2.0761,2.0816,2.0838,2.0881,2.0939,2.0983,2.1034,2.105,2.1091,2.1104,2.1165,2.1142,2.1227,2.1193,2.1224,2.1245,2.1248,2.1257,2.123,2.1279,2.1363,2.1374,2.1263,2.1262,2.1261,0,2.066,2.0747,2.0813,2.0838,2.0904,2.0934,2.0963,2.1011,2.1046,2.1096,2.1119,2.1176,2.1208,2.1253,2.1282,2.1262,2.1365,2.1344,2.1383,2.1382,2.1404,2.1403,2.1496,2.1423,2.1422,2.1422,2.1422,0,2.0732,2.0788,2.0831,2.0872,2.0935,2.0961,2.1023,2.1053,2.1096,2.1143,2.1157,2.1202,2.1237,2.1287,2.1311,2.1379,2.1393,2.1409,2.1415,2.1409,2.1407,2.143,2.1426,2.1425,2.1424,2.1424,2.1423,0,2.0785,2.0816,2.0889,2.0945,2.096,2.1004,2.1052,2.1093,2.112,2.1181,2.1196,2.1239,2.1299,2.1332,2.1408,2.1424,2.15,2.1503,2.1483,2.1485,2.1522,2.1519,2.1634,2.1651,2.1565,2.1566,2.1567,0,2.083,2.0873,2.0933,2.0965,2.0994,2.1046,2.1082,2.111,2.1147,2.1207,2.1241,2.1301,2.1351,2.1447,2.1486,2.1544,2.1549,2.1585,2.1558,2.155,2.1551,2.1548,2.1553,2.159,2.1591,2.1592,2.1592,0,2.0907,2.092,2.0969,2.1025,2.1066,2.1112,2.1157,2.1183,2.1219,2.126,2.132,2.1359,2.1436,2.1496,2.1558,2.1589,2.1598,2.1601,2.1613,2.1607,2.1594,2.1603,2.1497,2.1598,2.1597,2.1597,2.1597,2.1597,2.0958,2.0997,2.1045,2.1101,2.1137,2.1179,2.122,2.1252,2.1303,2.1367,2.1381,2.1446,2.1496,2.1579,2.1612,2.1664,2.1657,2.1675,2.1679,2.1683,2.1685,2.1585,2.1675,2.1675,2.1675,2.1675,2.1675,0,2.1036,2.1068,2.1118,2.1181,2.1224,2.1227,2.1277,2.1314,2.137,2.1416,2.1464,2.1535,2.1594,2.1637,2.1698,2.1731,2.1737,2.1746,2.1745,2.1752,2.1687,2.1671,2.1741,2.1741,2.1741,2.1741,2.1741,2.1741,2.1082,2.1149,2.1168,2.1253,2.1285,2.1347,2.1376,2.1415,2.1452,2.153,2.1578,2.1606,2.1651,2.1715,2.177,2.1781,2.1803,2.1813,2.1825,2.1763,2.1756,2.175,2.1735,2.1817,2.1817,2.1885,2.1886,2.1887]},{"header":{"parameterUnit":"m.s-1","parameterCategory":1,"la1":30.2991,"la2":30.254,"lo1":-89.0895,"lo2":-89.0444,"dy":0.0017,"dx":0.0017,"nx":28,"ny":28,"refTime":"2025-03-05T03:00:00:Z","depth":0,"parameterNumber":3,"parameterNumberName":"V-component_of_WINDS"},"data":[0,0,0,0,0,0,0,0,0,0,0,0,0,0,0,0,0,0,0,0,0,0,0,0,0,0,0,0,0,0,0,0,0,0,0,0,0,0,0,0,0,0,0,0,0,0,0,0,0,0,0,0,0,0,0,0,0,0,0.3433,0.3432,0,0.3361,0.336,0.336,0.3273,0.3271,0.327,0.3269,0.3196,0.3195,0.3194,0,0,0,0,0,0,0,0,0,0,0,0,0,0.3492,0.3491,0.3433,0.3432,0.3431,0.3361,0.336,0.3359,0.3273,0.3271,0.327,0.3268,0.3196,0.3195,0.3194,0,0,0,0,0,0,0,0,0,0,0,0,0,0.3448,0.3491,0.3433,0.3379,0.3374,0.3361,0.336,0.3359,0.3273,0.3271,0.3269,0.3267,0.3196,0.3195,0.3194,0.3228,0,0,0.3191,0.319,0,0,0,0,0,0,0,0,0.3451,0.3446,0.3388,0.3383,0.3377,0.3324,0.3354,0.3315,0.3274,0.3312,0.3269,0.3266,0.324,0.3235,0.3226,0.3225,0.3222,0.3191,0.319,0.319,0.3189,0,0,0,0,0,0,0,0.3454,0.3448,0.3404,0.3387,0.3381,0.3358,0.335,0.3346,0.3288,0.3308,0.3302,0.3294,0.3236,0.3227,0.3224,0.3221,0.3191,0.319,0.3189,0.3189,0.3239,0.324,0,0,0,0,0,0,0.3465,0.3452,0.3407,0.3402,0.3409,0.3359,0.3349,0.3343,0.3288,0.3277,0.3296,0.3291,0.323,0.3225,0.3221,0.3254,0.319,0.3189,0.3188,0.3237,0.3239,0.3241,0,0,0,0,0,0,0.3467,0.3462,0.341,0.3425,0.3417,0.336,0.3353,0.3343,0.3333,0.3279,0.3268,0.3298,0.3228,0.3222,0.3226,0.325,0.3188,0.3187,0.3234,0.3237,0.324,0.3322,0,0,0,0,0,0,0.3469,0.3463,0.3476,0.3426,0.3416,0.3417,0.3355,0.3343,0.3332,0.3324,0.3277,0.3268,0.3226,0.3228,0.3225,0.3247,0.3187,0.3232,0.3236,0.3239,0.3317,0.3327,0.3336,0,0,0,0,0,0.3471,0.3503,0.3477,0.3473,0.3432,0.3419,0.3413,0.3365,0.3334,0.3346,0.331,0.3269,0.3248,0.3229,0.3225,0.3248,0.323,0.3235,0.3239,0.3313,0.3325,0.3336,0,0,0,0,0,0,0.3559,0.3496,0.3467,0.3484,0.3457,0.3404,0.3418,0.338,0.3362,0.3355,0.3296,0.3286,0.3296,0.3272,0.3252,0.3275,0.3233,0.3237,0.329,0.3302,0.3312,0.3316,0.3186,0,0,0,0,0,0.358,0.3575,0.352,0.3541,0.3529,0.3476,0.3468,0.3433,0.3403,0.3391,0.3356,0.3328,0.3315,0.3307,0.3293,0.3313,0.33,0.3327,0.3336,0.3345,0.3348,0.3353,0.3363,0.3255,0.3255,0.3255,0,0,0.3624,0.3589,0.359,0.3557,0.3532,0.3527,0.3467,0.3465,0.346,0.3391,0.3391,0.3364,0.3329,0.334,0.3344,0.3321,0.3375,0.335,0.3357,0.3356,0.3358,0.3369,0.3378,0.3258,0.3258,0.3257,0,0,0.3701,0.3676,0.3687,0.3663,0.3626,0.359,0.3593,0.3545,0.3524,0.3523,0.347,0.3463,0.3442,0.3418,0.3403,0.3466,0.3426,0.3463,0.3514,0.3519,0.3527,0.3535,0.3554,0.3562,0.3467,0.3467,0.3468,0,0.376,0.3751,0.3699,0.3698,0.3684,0.3621,0.3631,0.361,0.357,0.3561,0.3536,0.3506,0.3478,0.348,0.3496,0.3487,0.3486,0.3468,0.3531,0.3537,0.3543,0.3561,0.3568,0.3472,0.3471,0.3471,0.3471,0,0.3823,0.3818,0.3832,0.3793,0.378,0.3786,0.3733,0.3726,0.3691,0.3657,0.3655,0.3619,0.3594,0.3592,0.3559,0.3589,0.3575,0.3542,0.3497,0.3559,0.3574,0.3581,0.3478,0.3477,0.3475,0.3474,0,0,0.3954,0.3884,0.389,0.387,0.3823,0.3817,0.3818,0.3792,0.3786,0.376,0.3757,0.374,0.3707,0.369,0.3653,0.3658,0.3706,0.3623,0.3621,0.3637,0.3732,0.3756,0.3765,0.368,0.3681,0.3682,0.3734,0,0.402,0.4018,0.397,0.3981,0.3972,0.3911,0.3911,0.3881,0.3849,0.3836,0.38,0.3787,0.3747,0.3735,0.3738,0.37,0.3724,0.3696,0.3674,0.3674,0.3683,0.3773,0.3799,0.385,0.374,0.3741,0.3742,0,0.4097,0.4073,0.4084,0.4032,0.4027,0.4028,0.3999,0.3988,0.3952,0.3928,0.3907,0.3865,0.386,0.3819,0.381,0.3792,0.378,0.3759,0.376,0.3755,0.371,0.3767,0.3866,0.3872,0.3751,0.375,0.375,0,0.4187,0.4158,0.4159,0.4144,0.4086,0.4087,0.4063,0.4025,0.4011,0.3985,0.3975,0.395,0.3935,0.3915,0.3866,0.3841,0.386,0.3817,0.3838,0.3839,0.3844,0.3844,0.3939,0.3841,0.3841,0.3841,0.384,0,0.4264,0.4272,0.4198,0.4199,0.4204,0.4148,0.4155,0.4124,0.409,0.4082,0.4028,0.4021,0.3958,0.3943,0.3905,0.39,0.3895,0.3873,0.3863,0.3877,0.3879,0.3867,0.3861,0.3843,0.3842,0.3842,0.3841,0,0.4365,0.4317,0.4313,0.4257,0.4243,0.4249,0.42,0.4197,0.4161,0.4151,0.4145,0.4088,0.4068,0.4017,0.3984,0.3957,0.3963,0.3945,0.3975,0.3967,0.399,0.3988,0.4079,0.4086,0.3987,0.3988,0.3989,0,0.4416,0.442,0.4364,0.4354,0.4332,0.4318,0.4303,0.4247,0.4233,0.419,0.4191,0.4167,0.4143,0.4113,0.4068,0.4041,0.402,0.4054,0.4016,0.4029,0.4017,0.4016,0.4014,0.4062,0.4063,0.4064,0.4065,0,0.4511,0.4486,0.4467,0.4438,0.4422,0.4397,0.4369,0.4364,0.43,0.4288,0.4266,0.4248,0.4212,0.4187,0.4153,0.4126,0.4084,0.4078,0.408,0.4094,0.411,0.4098,0.3994,0.4076,0.4075,0.4074,0.4073,0.4073,0.4586,0.4585,0.4545,0.4524,0.4497,0.4471,0.4464,0.4426,0.4407,0.4373,0.4341,0.4322,0.4281,0.423,0.4206,0.4188,0.4167,0.4173,0.4173,0.4175,0.4179,0.4114,0.4182,0.4182,0.4182,0.4181,0.4181,0,0.4675,0.4645,0.4627,0.4588,0.4571,0.4534,0.45,0.4488,0.4471,0.4437,0.4415,0.4388,0.4362,0.4314,0.4284,0.4279,0.4258,0.4272,0.4271,0.4264,0.4202,0.4201,0.4289,0.4289,0.4289,0.4289,0.4289,0.4289,0.4719,0.4714,0.4684,0.4664,0.4634,0.4614,0.4598,0.4572,0.4544,0.4517,0.4495,0.4463,0.4423,0.4388,0.4362,0.4348,0.4338,0.4358,0.4337,0.428,0.4269,0.426,0.4258,0.4357,0.4357,0.4401,0.4401,0.4401]}]]